{"data":{"norad_id":64037,"intl_designator":"2025-102R","name":"STARLINK-34008","alt_names":[],"object_type":"PAYLOAD","status":"ACTIVE","operator":null,"country":"US","launch_date":"2025-05-16","launch_site_code":"AFWTR","launch_vehicle":null,"mission":null,"orbit_class":"UNKNOWN","rcs_meters":null,"size_class":null,"mass_kg":null,"dimensions":null,"purposes":["comms"],"wikipedia_slug":null,"has_3d_model":false,"image_url":null,"decayed_at":null,"tle_current":{"epoch":"2026-05-24T19:26:29.154624Z","epoch_age_seconds":87381,"freshness":"FRESH","line1":"1 64037U 25102R   26144.81005966  .00002883  00000+0  24928-3 0  9990","line2":"2 64037  70.0006 282.5444 0002487 271.9588  88.1286 14.98338339 57360","mean_motion":14.98338339,"eccentricity":0.0002487,"inclination_deg":70.0006,"raan_deg":282.5444,"arg_perigee_deg":271.9588,"mean_anomaly_deg":88.1286,"bstar":0.00024928,"rev_number":5736,"period_min":96.10646424232,"perigee_km":570.30159683579,"apogee_km":573.75860995302,"semimajor_km":6950.1671033944,"source":"CELESTRAK","updated_at":"2026-05-25T13:38:20.227516Z"}}}